Change the Weather History Date:

Tuesday, December 17, 2013

  Actual Average Record
Temperature  
Mean Temperature 25 °F 24 °F  
Max Temperature 37 °F 32 °F 52 °F (1966)
Min Temperature 12 °F 17 °F -7 °F (1953)
Degree Days  
Heating Degree Days 40 41  
Month to date heating degree days 773 642  
Since 1 July heating degree days 2141 1949  
Cooling Degree Days 0 0  
Month to date cooling degree days 0 0  
Year to date cooling degree days 1064 912  
Moisture  
Dew Point 18 °F    
Average Humidity 74    
Maximum Humidity 96    
Minimum Humidity 52    
Precipitation  
Precipitation 0.00 in 0.05 in 0.28 in (1961)
Month to date precipitation 0.19 1.04  
Year to date precipitation 34.61 35.80  
Sea Level Pressure  
Sea Level Pressure 30.15 in    
Wind  
Wind Speed 10 mph (West)    
Max Wind Speed 31 mph    
Max Gust Speed 39 mph    
Visibility 9 miles    
Events      
T = Trace of Precipitation, MM = Missing Value Source: NWS Daily Summary

Daily Weather History Graph

Daily Weather History Graph

Search for Another Location

Airport or City:

Trip Planner

Search our weather history database for the weather conditions in past years. The results will help you decide how hot, cold, wet, or windy it might be!

Date:

Astronomy

Dec. 17, 2013 Rise Set
Actual Time 7:27 AM CST 4:37 PM CST
Civil Twilight 6:55 AM CST 5:08 PM CST
Nautical Twilight 6:20 AM CST 5:43 PM CST
Astronomical Twilight 5:47 AM CST 6:17 PM CST
Moon 5:18 PM CST (12/17) 7:23 AM CST (12/17)
Length of Visible Light 10h 12m
Length of Day
9h 09m
Full, 100% of the Moon is Illuminated
Dec 17
Full
Dec 25
Last Quarter
Jan 1
New
Jan 7
First Quarter
Jan 15
Full

Hourly Weather History & Observations

Time (CST) Temp. Windchill Dew Point Humidity Pressure Visibility Wind Dir Wind Speed Gust Speed Precip Events Conditions
12:52 AM 21.0 °F - 18.0 °F 88% 30.13 in 7.0 mi Calm Calm - N/A   Mostly Cloudy
1:52 AM 18.0 °F 12.7 °F 15.1 °F 88% 30.14 in 6.0 mi SSW 3.5 mph - N/A   Partly Cloudy
2:52 AM 16.0 °F - 14.0 °F 92% 30.14 in 6.0 mi Calm Calm - N/A   Clear
3:52 AM 14.0 °F 8.2 °F 12.0 °F 92% 30.13 in 6.0 mi SW 3.5 mph - N/A   Clear
4:52 AM 14.0 °F 8.2 °F 12.0 °F 92% 30.11 in 6.0 mi WSW 3.5 mph - N/A   Partly Cloudy
5:52 AM 19.9 °F 14.9 °F 17.1 °F 89% 30.10 in 7.0 mi West 3.5 mph - N/A   Overcast
6:52 AM 21.9 °F 12.5 °F 19.0 °F 89% 30.10 in 9.0 mi West 8.1 mph - N/A   Mostly Cloudy
7:52 AM 28.0 °F 19.3 °F 23.0 °F 81% 30.11 in 10.0 mi WNW 9.2 mph - N/A   Overcast
8:52 AM 30.9 °F 21.7 °F 25.0 °F 79% 30.11 in 10.0 mi West 11.5 mph - N/A   Overcast
9:52 AM 33.1 °F 23.0 °F 26.1 °F 75% 30.13 in 10.0 mi West 15.0 mph - N/A   Scattered Clouds
10:52 AM 35.1 °F 26.4 °F 25.0 °F 67% 30.12 in 10.0 mi WNW 12.7 mph 23.0 mph N/A   Clear
11:52 AM 36.0 °F 23.7 °F 23.0 °F 59% 30.11 in 10.0 mi WNW 26.5 mph 38.0 mph N/A   Clear
12:52 PM 36.0 °F 26.7 °F 21.0 °F 55% 30.11 in 10.0 mi NW 15.0 mph 29.9 mph N/A   Partly Cloudy
1:52 PM 35.1 °F 23.5 °F 19.0 °F 52% 30.12 in 10.0 mi WNW 21.9 mph 29.9 mph N/A   Clear
2:52 PM 34.0 °F 24.2 °F 19.9 °F 56% 30.13 in 10.0 mi WNW 15.0 mph 24.2 mph N/A   Partly Cloudy
3:52 PM 32.0 °F 23.0 °F 19.9 °F 61% 30.16 in 10.0 mi WNW 11.5 mph 20.7 mph N/A   Clear
4:52 PM 30.0 °F 18.7 °F 18.0 °F 61% 30.18 in 10.0 mi WNW 16.1 mph 24.2 mph N/A   Clear
5:52 PM 28.9 °F 18.2 °F 16.0 °F 58% 30.19 in 10.0 mi WNW 13.8 mph 31.1 mph N/A   Clear
6:52 PM 27.0 °F 15.6 °F 16.0 °F 63% 30.20 in 10.0 mi West 13.8 mph 21.9 mph N/A   Clear
7:52 PM 27.0 °F 15.2 °F 15.1 °F 61% 30.21 in 10.0 mi WNW 15.0 mph 21.9 mph N/A   Clear
8:52 PM 19.9 °F 12.1 °F 12.9 °F 74% 30.23 in 10.0 mi West 5.8 mph - N/A   Clear
9:52 PM 21.0 °F 11.4 °F 14.0 °F 74% 30.23 in 10.0 mi West 8.1 mph - N/A   Clear
10:52 PM 21.0 °F 12.4 °F 14.0 °F 74% 30.24 in 10.0 mi West 6.9 mph - N/A   Clear
11:52 PM 19.0 °F 13.9 °F 12.9 °F 77% 30.23 in 10.0 mi West 3.5 mph - N/A   Clear